Location: Melizzano
(41.1500°N, 14.5000°E)
Time: 09:18:22
(UTC+00:00)

BREEZE-M DEB (TANK) - Pass Details

Date: 11 May 2021
Orbit: 317 x 14224 km, 49.6° (Epoch: 14 June)

Event Time Altitude Azimuth Distance (km) Brightness Sun altitude
Rises 19:10:45 0° 293° (WNW) 2,084 7.4 -10.7°
Reaches altitude 10° 19:12:31 10° 280° (W) 1,228 5.5 -11.0°
Maximum altitude 19:14:34 30° 213° (SSW) 702 3.1 -11.3°
Enters shadow 19:16:48 14° 155° (SSE) 1,465 4.3 -11.7°
